GEFSSE_500_meanwind_330.txt.gz
Wind_Speed
4 3 3 3 3 3 3 4 3 3 3 4 4 5 5 5 5 5 6 6 6 6 6 6 6 7 7 7 7 7 7 7 6 6 6 6 5 5 5 5 6 6 5
4 4 4 3 4 4 4 4 4 4 5 5 5 5 6 6 6 6 6 6 7 7 8 8 8 8 7 7 8 7 7 7 7 6 7 7 6 6 6 7 6 6 6
5 5 5 4 4 5 5 5 6 6 6 6 6 6 6 6 6 6 7 7 7 8 9 9 9 9 9 9 9 8 7 8 8 7 7 7 7 7 8 7 7 7 7
5 5 6 5 5 5 6 6 7 7 7 7 7 7 7 6 6 7 8 8 8 9 9 9 10 10 10 10 10 9 8 8 8 8 8 8 8 8 8 9 8 8 8
6 6 6 6 7 6 6 6 6 7 7 7 7 8 8 7 7 7 8 9 9 9 9 9 10 10 11 11 11 10 10 9 9 9 9 9 9 8 9 9 10 10 9
6 6 6 7 7 7 6 7 6 7 7 7 7 8 8 8 7 8 8 9 9 9 9 9 10 10 10 10 10 10 10 10 10 10 10 10 10 9 9 10 10 10 10
7 7 7 7 7 7 7 6 7 7 7 7 8 8 8 8 9 9 9 9 9 9 9 9 10 10 11 11 11 11 11 11 10 10 10 10 10 9 10 10 10 11 11
6 7 6 6 7 7 7 7 8 8 8 8 8 9 9 8 8 9 9 9 9 10 10 11 11 11 11 11 12 12 12 12 11 11 10 10 10 10 10 11 11 11 11
6 6 6 6 6 7 7 8 8 8 8 8 9 9 9 9 9 9 9 10 10 11 11 11 11 11 11 12 12 13 13 13 12 12 11 11 11 11 12 12 12 12 12
5 5 6 6 6 7 7 7 7 7 8 8 9 9 9 10 10 9 9 10 10 10 11 11 10 10 11 11 12 11 12 12 12 13 12 12 12 12 13 12 13 13 13
4 5 5 5 6 6 6 6 7 7 8 8 9 9 9 10 10 10 10 9 10 11 11 11 10 10 12 12 12 12 12 12 12 12 13 13 13 12 12 12 13 13 13
4 4 5 5 5 6 6 6 7 7 8 8 9 9 9 10 10 10 10 11 11 11 12 12 12 13 13 12 12 12 12 12 12 12 12 13 13 13 12 13 13 13 13
5 5 5 5 5 6 6 6 7 8 8 8 9 9 10 10 11 11 11 12 12 12 12 12 12 12 13 13 13 12 12 13 12 12 13 12 13 13 12 13 13 13 13
5 6 6 6 6 6 7 7 7 8 8 9 9 10 10 11 11 12 12 12 12 12 12 12 11 11 12 12 12 12 12 12 12 12 12 12 13 13 13 14 14 14 14
6 6 6 6 6 7 7 8 8 8 9 10 10 11 11 11 11 12 12 12 12 12 12 12 12 11 11 12 12 12 12 12 12 11 11 12 12 13 13 14 14 15 15
7 7 7 7 7 8 8 8 8 9 9 10 10 11 11 12 12 12 12 13 12 12 12 12 13 12 12 12 11 12 12 11 12 11 11 12 12 12 13 13 14 14 15
8 8 8 8 8 8 8 9 9 9 10 10 10 11 11 12 12 12 12 12 12 12 12 13 12 12 12 12 11 11 12 12 12 12 12 12 12 12 12 13 13 14 15
8 8 8 8 8 9 9 9 10 11 10 11 11 11 12 11 11 11 11 11 11 11 11 12 12 12 11 11 11 11 12 12 13 13 13 13 14 13 13 14 14 14 15
9 9 9 9 9 9 10 10 11 12 12 12 12 12 12 12 11 11 11 11 11 11 11 11 10 11 11 10 11 11 12 12 13 14 14 14 14 14 14 14 14 14 14
9 9 9 9 9 10 10 10 11 12 13 13 13 13 12 12 11 11 11 11 11 11 10 10 10 10 10 11 11 12 12 13 14 14 14 14 14 14 14 14 14 14 15
11 11 11 10 10 10 10 10 11 12 12 13 13 12 12 12 12 11 11 11 11 11 11 11 11 11 11 11 11 12 12 13 14 14 14 14 14 14 14 14 14 14 14
11 12 12 11 11 11 12 11 11 12 13 13 13 13 13 13 13 12 12 12 12 12 12 13 13 12 13 13 12 13 13 13 14 14 14 14 14 14 14 14 14 14 14
12 12 13 12 12 12 12 11 12 13 13 13 13 13 12 13 13 13 13 13 13 13 13 13 13 13 14 14 14 14 15 15 15 15 15 15 15 15 16 15 15 15 14
13 13 13 13 13 13 13 13 13 12 12 13 13 13 13 14 13 14 14 15 15 15 15 14 15 15 15 16 16 16 16 16 16 16 17 17 16 16 16 16 16 15 15
13 14 14 14 14 13 13 13 14 13 14 14 14 14 14 14 15 15 15 16 16 16 16 16 17 17 17 17 17 17 18 18 18 17 18 18 18 18 17 17 17 17 17
13 14 14 14 14 14 13 14 14 15 15 15 15 14 14 14 15 16 16 17 17 17 17 17 18 18 18 19 19 20 19 19 19 19 19 19 19 19 19 18 18 18 18

GEFSSE_500_meanwind_336.txt.gz
Wind_Speed
3 3 3 2 2 2 2 2 2 2 2 2 2 1 1 2 2 2 3 4 4 4 4 4 4 4 4 4 4 4 5 5 5 4 4 5 5 5 5 5 5 5 5
4 4 4 4 3 3 3 3 3 3 3 3 4 3 3 3 3 3 4 4 5 6 6 6 5 6 6 6 6 6 6 6 6 6 6 5 5 6 6 6 6 6 6
5 5 5 4 4 4 4 4 4 4 4 4 5 4 4 4 4 5 5 5 5 6 6 6 7 7 7 7 7 7 7 7 7 7 7 6 6 7 7 7 7 7 7
5 5 5 5 5 5 4 5 6 5 5 5 5 5 5 5 6 7 6 6 7 7 7 7 7 7 8 8 8 8 7 8 8 8 8 8 8 8 9 9 8 8 8
6 6 6 5 5 5 5 5 6 5 5 5 5 5 6 7 7 7 7 7 8 8 8 8 8 8 8 8 8 9 9 9 9 10 10 10 9 9 10 10 9 9 9
6 6 6 6 6 5 5 5 5 5 5 5 6 6 6 7 7 8 8 8 8 8 9 8 8 8 8 8 9 9 10 10 10 10 10 11 10 10 10 10 10 11 11
6 6 6 6 6 6 6 5 6 6 6 6 6 6 6 7 7 7 8 9 8 8 8 9 9 9 9 9 10 10 10 11 10 10 10 10 10 10 11 10 11 11 12
6 6 7 7 7 7 7 6 7 7 6 6 7 7 7 7 8 8 8 9 9 9 9 9 10 10 10 9 9 11 11 11 10 10 10 11 11 11 11 11 11 12 12
6 6 7 7 6 7 7 7 7 7 7 7 7 8 8 8 8 9 9 9 10 10 10 10 11 10 10 11 11 11 12 13 13 12 12 12 12 12 12 13 13 13 13
6 6 6 6 6 6 7 7 8 8 8 8 8 8 8 8 9 9 10 10 10 10 10 11 11 12 12 12 12 12 12 13 13 13 13 13 13 13 14 14 14 14 14
6 6 5 5 6 6 7 7 7 7 7 7 8 8 8 8 8 9 10 10 10 11 11 11 12 12 12 13 13 12 12 12 12 13 13 13 13 14 14 14 14 14 14
6 5 5 5 6 6 6 6 7 7 8 8 8 8 8 9 9 10 10 11 11 11 11 12 12 12 13 13 13 13 13 13 13 13 13 13 13 13 13 13 13 13 13
6 6 6 6 6 6 6 7 7 7 8 8 8 8 9 9 10 10 11 11 11 11 11 11 12 13 13 13 13 13 13 12 12 13 13 13 13 12 12 13 13 14 14
7 6 6 6 6 7 7 7 7 8 8 8 9 9 9 10 10 11 11 11 11 12 12 12 13 12 12 12 13 13 13 12 12 12 12 12 13 13 12 13 14 14 14
7 7 7 7 7 8 8 8 8 8 8 9 9 9 10 10 11 11 11 11 11 12 12 12 12 12 12 12 12 12 12 12 13 13 13 13 13 12 12 13 13 14 14
8 7 7 7 8 8 8 8 8 9 9 9 9 10 10 11 11 12 12 12 12 12 12 12 12 12 12 11 12 11 11 12 13 14 13 13 13 12 13 13 13 13 13
8 8 8 8 8 7 7 8 8 9 9 10 10 11 11 11 12 12 12 12 11 12 12 12 12 12 11 12 12 12 12 13 13 13 13 14 14 13 13 13 13 14 14
9 9 9 9 9 9 9 9 8 9 9 10 10 10 11 12 12 12 11 11 11 11 11 11 12 12 12 13 13 13 13 13 13 13 14 14 14 15 14 14 14 14 14
10 10 10 9 10 10 10 9 9 9 10 10 10 11 11 11 11 11 11 10 11 11 11 11 12 12 12 12 13 13 13 12 12 13 13 14 14 14 14 14 14 15 14
10 10 11 10 10 10 10 10 10 11 11 11 11 11 11 11 10 10 10 10 11 11 11 12 12 12 12 12 12 12 12 12 12 13 13 14 14 14 14 13 14 15 14
10 11 11 11 11 11 11 11 12 12 12 11 11 11 11 11 11 11 11 11 11 12 12 12 12 12 12 12 12 12 12 12 13 13 13 14 14 14 14 14 14 14 14
11 11 12 12 12 12 12 12 12 12 12 12 12 12 12 12 12 12 11 12 12 12 12 12 12 12 13 13 13 13 13 14 13 13 14 14 14 14 14 15 15 15 14
12 12 13 12 12 12 13 12 13 13 12 12 12 12 12 12 12 12 12 12 13 13 12 12 13 13 13 14 14 14 14 14 15 15 15 15 14 14 15 15 16 16 16
13 13 14 14 14 13 13 13 13 12 12 12 12 12 13 13 13 13 13 13 13 13 14 14 14 14 14 15 15 15 16 16 17 17 16 16 16 16 16 16 17 17 17
14 14 14 14 14 14 14 14 14 14 13 13 13 14 14 14 14 14 14 15 15 15 15 15 15 15 16 16 17 17 17 17 17 17 17 17 18 18 18 18 17 17 18
14 15 15 14 14 15 15 14 14 15 15 15 15 15 15 15 15 15 15 16 17 17 17 17 17 17 17 18 18 18 18 18 18 18 18 18 19 19 19 19 19 18 19

GEFSSE_500_meanwind_342.txt.gz
Wind_Speed
4 4 4 5 4 4 3 3 2 2 2 2 2 2 3 4 5 4 4 4 4 4 4 4 5 4 5 4 4 5 5 5 6 5 5 6 6 6 5 5 5 6 6
5 4 4 5 5 5 4 4 3 3 3 3 3 3 3 4 4 5 5 5 5 5 5 5 5 5 5 6 6 6 6 6 6 7 7 7 7 7 7 7 7 6 6
5 5 5 5 5 5 5 4 4 4 3 4 4 4 4 5 5 6 5 5 5 6 6 6 6 6 6 7 7 7 8 7 7 7 8 7 7 8 8 8 8 7 7
5 6 6 6 6 5 5 5 5 5 4 4 4 4 5 5 5 6 6 6 6 6 7 7 7 7 7 7 7 8 8 9 9 9 9 9 9 9 9 9 8 8 8
6 5 6 7 7 6 6 6 6 5 5 5 5 5 5 6 6 6 7 7 6 7 7 7 8 7 8 8 8 8 9 9 10 10 9 10 10 10 10 10 10 10 10
6 5 6 6 6 7 6 6 6 6 6 6 5 6 5 6 6 6 7 7 7 7 8 8 9 8 9 9 9 9 9 9 10 10 10 10 10 10 10 11 11 11 11
6 5 6 6 7 7 7 6 6 6 6 6 6 6 6 5 5 6 7 8 8 8 8 9 9 9 9 10 10 10 10 11 11 10 10 10 11 11 11 12 12 12 12
6 6 6 7 7 7 7 7 7 7 7 6 6 7 6 6 6 7 7 7 8 8 9 9 10 10 10 10 11 11 11 12 12 12 11 11 11 12 12 12 12 12 12
7 7 7 8 8 7 7 8 8 8 8 8 7 7 7 7 7 8 8 8 8 9 9 10 10 11 11 11 11 12 12 12 12 12 12 12 11 12 12 12 12 13 13
7 8 9 8 8 8 8 8 8 8 8 8 8 8 7 7 8 8 8 8 9 9 9 10 10 10 11 12 12 12 12 12 12 12 12 12 13 13 13 13 13 14 14
7 8 8 8 8 8 8 9 9 8 8 8 8 8 8 8 8 9 9 9 10 10 10 10 10 11 11 13 13 13 12 13 13 13 13 14 14 13 13 14 14 14 14
8 8 8 9 9 9 9 9 9 8 8 8 8 9 9 9 9 9 9 9 10 10 11 11 11 11 12 13 14 14 14 14 14 14 15 14 14 14 14 15 14 15 15
9 9 8 8 9 9 9 9 9 9 9 9 9 9 9 9 10 10 10 10 10 11 11 11 11 12 12 12 13 13 14 14 14 14 14 13 14 15 15 15 15 15 15
9 9 9 9 9 9 9 9 9 9 9 10 10 10 10 10 10 10 11 11 11 11 11 11 11 12 12 13 13 14 14 14 14 14 14 14 14 14 15 15 15 14 15
10 10 10 10 10 10 10 9 9 9 10 10 10 10 10 10 10 11 11 11 12 12 12 11 11 11 12 12 12 13 13 14 14 14 14 14 15 15 14 14 15 15 15
11 11 10 10 11 11 10 10 10 10 10 10 10 10 11 11 11 11 10 11 12 12 11 11 11 11 12 12 13 13 13 14 14 14 14 15 15 15 15 14 15 16 17
10 11 11 11 11 11 11 11 11 10 10 10 10 10 10 10 10 10 11 11 11 11 11 11 11 11 11 12 13 13 14 14 13 14 15 15 15 15 15 15 16 16 17
11 11 12 12 12 12 12 11 12 12 11 11 10 10 10 10 10 10 10 11 11 11 10 10 11 11 12 12 12 13 13 13 14 14 14 14 14 14 15 16 16 16 17
12 12 12 12 12 12 12 13 13 12 11 11 10 10 10 10 11 11 11 11 11 11 11 12 12 12 12 12 13 13 13 14 14 14 14 14 14 14 14 14 15 15 15
12 12 13 12 12 12 12 12 12 12 12 12 11 11 11 11 11 11 11 11 10 10 11 12 12 13 13 12 13 13 14 14 14 14 14 14 14 14 14 15 15 15 15
12 12 12 13 13 13 13 13 12 12 12 12 12 12 13 13 12 11 11 11 11 11 12 12 12 12 13 13 13 13 13 14 14 14 14 14 14 14 15 15 15 15 15
13 13 13 13 13 13 13 13 13 12 13 13 13 13 13 13 12 12 12 12 12 13 13 13 12 13 13 13 13 13 13 14 14 15 15 14 15 15 15 15 15 16 16
14 14 14 14 15 15 14 14 14 14 14 14 14 14 14 14 13 12 12 13 13 14 14 14 14 14 14 14 14 14 15 15 15 15 15 15 16 16 16 16 16 17 17
14 15 15 15 16 16 15 15 15 15 15 14 15 15 15 14 14 14 14 14 15 15 15 15 15 15 15 15 15 16 16 16 16 16 16 16 16 16 16 16 17 17 18
15 15 15 16 16 17 16 16 16 15 15 15 15 15 15 15 15 15 15 16 16 16 16 16 16 16 16 16 16 17 17 17 17 17 17 17 17 17 17 17 17 18 19
15 15 15 16 17 17 17 17 17 17 17 16 16 16 16 16 17 17 17 17 17 17 17 17 17 17 18 18 18 18 18 18 18 19 19 19 19 18 18 18 19 19 20

GEFSSE_500_meanwind_348.txt.gz
Wind_Speed
5 5 5 5 5 5 5 4 4 3 3 3 2 3 3 3 4 4 5 5 5 5 5 5 5 5 5 4 5 4 4 5 5 4 4 4 5 6 6 6 5 6 6
6 6 6 7 6 6 6 5 5 4 4 4 4 4 4 5 4 5 5 5 6 6 6 6 6 5 5 6 6 6 6 6 6 6 6 7 6 7 7 6 6 7 7
6 6 6 6 7 7 7 6 6 6 5 5 5 5 5 6 5 6 6 6 6 6 6 6 6 6 6 6 6 7 8 8 8 8 8 8 8 8 8 8 8 8 8
6 6 6 6 7 7 7 7 7 7 6 6 6 6 6 6 6 6 7 7 7 7 7 7 7 7 7 7 7 8 8 9 9 9 9 9 9 9 9 9 9 9 9
7 7 7 7 7 7 8 8 7 8 7 7 6 6 6 6 7 7 8 8 7 7 7 7 7 7 8 8 8 8 8 9 9 9 9 9 9 9 9 9 9 9 9
7 7 7 8 8 8 8 8 8 8 7 8 7 7 7 8 8 8 8 8 8 8 8 8 8 9 9 9 9 9 9 9 9 9 9 10 10 10 10 10 10 10 9
7 7 8 8 8 8 8 8 8 8 8 8 8 8 8 8 8 8 7 8 8 8 8 9 9 10 10 10 10 10 10 10 10 10 10 10 10 11 11 11 11 10 11
8 8 8 8 8 8 8 9 9 8 8 9 9 8 8 8 8 8 8 8 8 9 9 10 10 11 11 11 11 11 11 11 11 11 11 10 11 11 11 11 11 11 12
8 8 8 8 8 8 8 8 8 8 8 8 8 8 8 8 8 8 8 8 8 9 9 9 10 11 11 11 11 11 11 10 11 11 12 12 12 11 11 11 12 12 13
9 8 8 9 9 9 9 9 9 9 9 9 9 9 8 9 9 9 9 9 9 9 9 10 10 10 10 10 11 12 12 11 11 12 12 12 12 12 12 12 12 13 13
9 9 9 9 9 9 9 9 9 9 9 9 10 10 9 9 10 10 10 10 10 10 10 10 10 11 11 11 11 12 13 13 13 13 12 12 12 13 13 13 13 13 13
9 10 9 9 9 9 9 9 9 10 10 10 10 10 10 10 10 10 11 11 11 10 11 11 11 11 11 11 11 12 13 13 13 14 14 14 13 13 13 13 13 12 12
10 10 10 10 9 9 9 9 10 10 10 10 10 10 10 10 10 10 11 11 11 11 11 11 11 11 11 11 11 12 13 13 14 15 15 15 14 13 13 13 13 13 13
11 11 11 10 10 10 9 10 10 10 10 11 11 11 11 11 10 10 10 11 11 11 11 11 11 11 11 11 11 12 12 13 15 16 15 16 15 14 14 14 14 13 13
11 11 11 11 11 10 10 10 11 11 11 11 11 11 11 11 11 10 10 10 10 11 11 11 11 11 11 11 11 12 12 13 14 14 15 15 15 15 14 14 14 14 14
11 11 12 12 11 11 11 11 11 12 12 12 11 11 11 11 11 11 11 11 11 11 11 11 12 11 11 11 11 12 12 13 13 13 14 14 14 14 14 14 14 13 13
12 12 12 13 12 11 11 12 12 12 12 12 12 12 12 12 12 11 11 11 11 11 12 12 12 12 12 12 12 12 12 13 14 14 14 14 14 14 14 14 14 14 14
13 13 13 13 13 12 12 12 12 12 12 12 12 12 12 12 11 11 11 11 12 12 12 12 12 12 12 12 12 12 13 13 13 13 13 14 14 14 15 15 15 15 14
13 13 13 13 13 14 14 13 13 12 12 12 12 12 12 12 12 12 12 12 11 11 11 11 12 13 13 13 13 13 13 14 14 14 14 13 13 14 14 15 15 14 14
13 13 13 13 13 13 14 14 14 13 13 12 12 12 12 12 12 12 12 11 11 11 11 12 12 13 13 13 14 14 14 14 14 14 14 14 14 13 13 13 13 13 13
12 13 13 14 14 14 14 14 14 14 13 13 13 13 13 13 13 13 12 12 12 12 13 13 13 13 13 13 14 13 14 14 14 14 14 14 14 14 14 14 13 13 14
12 12 12 13 14 14 14 14 14 14 14 14 14 14 14 14 13 13 14 14 14 13 14 14 15 15 15 15 14 14 14 14 14 15 15 15 15 15 15 15 15 14 14
13 13 13 13 13 13 13 14 14 15 15 15 15 15 15 15 14 14 15 15 15 15 15 15 16 16 16 16 16 16 15 15 15 15 15 16 16 16 16 16 16 16 15
14 14 14 14 14 14 15 15 15 16 16 16 16 16 16 15 15 15 15 16 16 16 16 16 17 17 17 18 18 17 17 17 16 15 15 16 16 16 16 17 17 17 16
15 15 15 15 15 16 16 17 17 17 17 17 17 17 17 16 16 16 17 17 17 18 18 18 18 18 18 18 18 18 18 18 18 17 16 16 17 17 17 18 18 18 18
16 16 16 17 17 17 17 17 18 18 18 18 18 18 18 18 18 18 19 19 19 19 19 20 20 20 19 19 19 19 19 19 19 19 18 17 18 19 19 19 19 19 18